STARLINK-34934, 65897

Orbit data source: Space-Track

STARLINK-34934, 65897 is a payload satellite owned by SpaceX/Seattle (US) in LEO that was launched on Tue, 07 Oct 2025 UTC via an FALCON 9 launch vehicle from the Air Force Eastern Test Range (AFETR). Payload-class satellites include a variety of spacecraft equipped with specific instruments for various scientific and technological missions. These include communications satellites like Starlink; space stations such as the ISS; scientific satellites like the Hubble; Earth observation satellites from companies like Planet Labs, Umbra, and HawkEye 360; GPS; miniature CubeSats for education and research; and military/defense satellites.

Loading next visibility...
Identifier
65897, 2025-224R
Orbit
LEO
Country
Flag of USUS
Related business
Manufacturer
SpaceX/Seattle
Mission
Operational Commercial Communications
Bus & Motor
STARLINK V2MO, Unknown motor
Mass
575 kg wet, ~530 kg dry
Launch date (UTC)
2025-10-07 (5 months ago)
Launch vehicle
FALCON 9
Launch site
Air Force Eastern Test Range (AFETR)
Object type
Payload
Rocket body
Debris
Shape & HBR
Box + 2 Pan, 17.7 m
Radar Cross Section
36.964 m²

Expand to show TLE details & history
Last TLE update: 8 hours ago

TLE from 8 hours ago
0 STARLINK-34934
1 65897U 25224R   26062.33547938  .00031280  00000-0  10637-2 0  9991
2 65897  53.1610  40.7002 0001211  93.1219 266.9920 15.30204223 23850
Epoch: 2026-03-03T08:03Z
TLE epoch observation values (Epoch: 2026-03-03T08:03:05.418Z)
Latitude
-0.00005°
Longitude
118.81158°
Altitude
476.146 km
Speed
7.629 km/s
True Right ascension
02h 42m 48s
True Declination
0° 00' 00"
Sunlit
Object was in daylight at epoch
Visualization orbit readout
Latitude
Unknown
Longitude
Unknown
Altitude
Unknown
Speed
Unknown
Apparent Right ascension
Unknown
Apparent Declination
Unknown
Sunlit
N/A
Visualization observer readout
Local Sidereal Time
19:34:00
Azimuth
Unknown
Elevation
Unknown
Doppler factor
Unknown
Orbital elements
Apogee altitude
476.289 km
Perigee altitude
474.629 km
Semi-major axis
6,853.596 km
Eccentricity
0.00012
Inclination
53.161°
RAAN
40.7002°
Arg. of periapsis
93.1219°
True anomaly
266.97814°
Mean anomaly
266.992°
Eccentric anomaly
266.98507°
Mean motion
3.8253 °/min
Orbital period
94.11 mins
BSTAR
0.0010637
Loading maneuver chart data...
Computing Atmospheric mass density...
Loading historical data...
Loading historical data...
Loading historical data...
Loading historical data...
Loading historical data...
Loading historical data...
Loading historical data...

Documentation

Showing up to 5 results
|